Вернуться в каталог

COSMOS 1275 DEB

АктивенPO
NORAD 42159·DEBRIS·🇷🇺 Russia

Запущен Jun 4, 1981 с Plesetsk Cosmodrome

Loading…

Ближайшие Пролёты (ближайшие 24 часа)

TLE

УстаревающийSource: Space-Track

Эпоха: Sep 10, 2026, 14:29 UTC

1 42159U 81053RX  26253.60405455  .00000903  00000-0  79814-3 0  9999
2 42159  82.8249  17.4628 0067506 204.2757 155.5219 13.83060610610514

Отслеживайте COSMOS 1275 DEB в реальном времени с AllMySat

Download on the App Store